TimeCDT,TemperatureF,Dew PointF,Humidity,Sea Level PressureIn,VisibilityMPH,Wind Direction,Wind SpeedMPH,Gust SpeedMPH,PrecipitationIn,Events,Conditions,WindDirDegrees,DateUTC
12:15 AM,39.2,33.8,81,29.98,10.0,NNE,9.2,-,N/A,,Overcast,30,2013-03-23 05:15:00
12:35 AM,39.2,33.8,81,29.97,10.0,NNE,9.2,-,N/A,,Overcast,30,2013-03-23 05:35:00
12:55 AM,39.2,33.8,81,29.96,10.0,NNE,10.4,-,N/A,,Overcast,30,2013-03-23 05:55:00
1:15 AM,39.2,33.8,81,29.94,10.0,NNE,11.5,-,N/A,,Overcast,30,2013-03-23 06:15:00
1:35 AM,39.2,33.8,81,29.94,10.0,NE,11.5,-,N/A,,Overcast,40,2013-03-23 06:35:00
1:55 AM,39.2,33.8,81,29.94,10.0,NNE,6.9,-,N/A,,Overcast,20,2013-03-23 06:55:00
2:15 AM,39.2,33.8,81,29.94,10.0,North,8.1,-,N/A,,Overcast,10,2013-03-23 07:15:00
2:35 AM,37.4,33.8,87,29.93,10.0,North,8.1,-,N/A,,Overcast,10,2013-03-23 07:35:00
2:55 AM,37.4,33.8,87,29.93,10.0,North,11.5,-,N/A,,Overcast,10,2013-03-23 07:55:00
3:15 AM,39.2,33.8,81,29.93,10.0,NNE,9.2,-,N/A,,Overcast,30,2013-03-23 08:15:00
3:35 AM,39.2,33.8,81,29.92,10.0,NNE,10.4,-,N/A,,Overcast,30,2013-03-23 08:35:00
3:55 AM,39.2,33.8,81,29.92,10.0,NE,9.2,-,N/A,,Overcast,40,2013-03-23 08:55:00
4:15 AM,39.2,33.8,81,29.92,10.0,NNE,8.1,-,N/A,,Overcast,30,2013-03-23 09:15:00
4:35 AM,39.2,33.8,81,29.93,10.0,NNE,9.2,-,N/A,,Overcast,20,2013-03-23 09:35:00
4:55 AM,39.2,33.8,81,29.92,10.0,NNE,6.9,-,N/A,,Overcast,20,2013-03-23 09:55:00
5:15 AM,39.2,33.8,81,29.94,10.0,NNE,5.8,-,N/A,,Overcast,20,2013-03-23 10:15:00
5:35 AM,39.2,33.8,81,29.94,10.0,NNE,10.4,-,N/A,,Overcast,20,2013-03-23 10:35:00
5:55 AM,39.2,33.8,81,29.94,10.0,NNE,9.2,-,N/A,,Overcast,20,2013-03-23 10:55:00
6:15 AM,39.2,33.8,81,29.94,10.0,NNE,6.9,-,N/A,,Overcast,30,2013-03-23 11:15:00
6:35 AM,39.2,33.8,81,29.95,10.0,NNE,9.2,-,N/A,,Overcast,30,2013-03-23 11:35:00
6:55 AM,39.2,33.8,81,29.95,10.0,North,6.9,-,N/A,,Overcast,10,2013-03-23 11:55:00
7:15 AM,39.2,33.8,81,29.95,10.0,NNE,10.4,-,N/A,,Overcast,20,2013-03-23 12:15:00
7:35 AM,39.2,33.8,81,29.94,10.0,NNE,11.5,-,N/A,,Overcast,30,2013-03-23 12:35:00
7:55 AM,39.2,33.8,81,29.94,10.0,NNE,10.4,-,N/A,,Overcast,20,2013-03-23 12:55:00
8:15 AM,39.2,33.8,81,29.95,10.0,NNE,9.2,-,N/A,,Overcast,30,2013-03-23 13:15:00
8:35 AM,39.2,33.8,81,29.95,10.0,NNE,10.4,-,N/A,,Overcast,20,2013-03-23 13:35:00
8:55 AM,39.2,33.8,81,29.96,10.0,NNE,9.2,-,N/A,,Overcast,20,2013-03-23 13:55:00
9:15 AM,39.2,33.8,81,29.96,10.0,NNE,13.8,-,N/A,,Overcast,20,2013-03-23 14:15:00
9:35 AM,41.0,35.6,81,29.96,10.0,NNE,13.8,-,N/A,,Overcast,30,2013-03-23 14:35:00
9:55 AM,41.0,35.6,81,29.97,10.0,NNE,11.5,-,N/A,,Overcast,30,2013-03-23 14:55:00
10:15 AM,41.0,35.6,81,29.96,10.0,NE,11.5,-,N/A,,Overcast,40,2013-03-23 15:15:00
10:35 AM,42.8,35.6,76,29.95,10.0,NE,12.7,-,N/A,,Overcast,50,2013-03-23 15:35:00
10:55 AM,42.8,37.4,81,29.92,10.0,NE,18.4,-,N/A,,Overcast,50,2013-03-23 15:55:00
11:15 AM,44.6,37.4,76,29.92,10.0,NE,16.1,23.0,N/A,,Overcast,40,2013-03-23 16:15:00
11:35 AM,44.6,37.4,76,29.94,10.0,NE,13.8,-,N/A,,Overcast,50,2013-03-23 16:35:00
11:55 AM,46.4,39.2,76,29.93,10.0,NE,17.3,-,N/A,,Overcast,50,2013-03-23 16:55:00
12:15 PM,46.4,39.2,76,29.92,10.0,NE,19.6,-,N/A,,Scattered Clouds,50,2013-03-23 17:15:00
12:35 PM,48.2,39.2,71,29.92,10.0,NNE,16.1,-,N/A,,Mostly Cloudy,30,2013-03-23 17:35:00
1:15 PM,48.2,39.2,71,29.91,10.0,NE,13.8,-,N/A,,Overcast,40,2013-03-23 18:15:00
1:35 PM,48.2,41.0,76,29.89,10.0,NE,18.4,-,N/A,,Overcast,40,2013-03-23 18:35:00
1:55 PM,48.2,39.2,71,29.88,10.0,NE,15.0,-,N/A,,Mostly Cloudy,40,2013-03-23 18:55:00
2:15 PM,48.2,39.2,71,29.87,10.0,NE,13.8,-,N/A,,Overcast,50,2013-03-23 19:15:00
2:35 PM,46.4,41.0,81,29.85,10.0,NE,15.0,-,N/A,,Overcast,40,2013-03-23 19:35:00
2:55 PM,46.4,42.8,87,29.85,10.0,NNE,11.5,-,N/A,,Overcast,30,2013-03-23 19:55:00
3:15 PM,48.2,41.0,76,29.85,10.0,NE,10.4,-,N/A,,Overcast,40,2013-03-23 20:15:00
3:35 PM,46.4,41.0,81,29.82,10.0,NE,15.0,-,N/A,,Overcast,40,2013-03-23 20:35:00
3:55 PM,46.4,39.2,76,29.83,10.0,NNE,16.1,-,N/A,,Overcast,30,2013-03-23 20:55:00
4:15 PM,46.4,39.2,76,29.82,10.0,NE,11.5,-,N/A,,Overcast,50,2013-03-23 21:15:00
4:35 PM,46.4,39.2,76,29.80,10.0,NNE,12.7,-,N/A,,Overcast,30,2013-03-23 21:35:00
4:55 PM,46.4,39.2,76,29.81,10.0,NNE,13.8,-,N/A,,Overcast,20,2013-03-23 21:55:00
5:15 PM,46.4,39.2,76,29.81,10.0,NNE,12.7,-,N/A,,Overcast,30,2013-03-23 22:15:00
5:35 PM,46.4,39.2,76,29.82,10.0,NNE,10.4,-,N/A,,Overcast,30,2013-03-23 22:35:00
5:55 PM,46.4,39.2,76,29.80,10.0,NE,9.2,-,N/A,,Overcast,40,2013-03-23 22:55:00
6:15 PM,46.4,41.0,81,29.79,10.0,NNE,9.2,-,N/A,,Overcast,20,2013-03-23 23:15:00
6:35 PM,46.4,39.2,76,29.78,10.0,NNE,10.4,-,0.01,,Overcast,20,2013-03-23 23:35:00
6:55 PM,44.6,41.0,87,29.74,9.0,NE,11.5,-,0.01,,Overcast,40,2013-03-23 23:55:00
7:15 PM,44.6,41.0,87,29.76,9.0,NNE,6.9,-,N/A,,Overcast,20,2013-03-24 00:15:00
7:35 PM,44.6,41.0,87,29.77,9.0,North,6.9,-,0.01,,Overcast,10,2013-03-24 00:35:00
7:55 PM,44.6,42.8,93,29.77,9.0,NE,8.1,-,0.02,,Overcast,50,2013-03-24 00:55:00
8:15 PM,44.6,42.8,93,29.77,6.0,NE,5.8,-,0.02,,Overcast,40,2013-03-24 01:15:00
8:35 PM,44.6,42.8,93,29.75,5.0,NE,6.9,-,0.04,,Overcast,50,2013-03-24 01:35:00
8:55 PM,44.6,42.8,93,29.77,5.0,North,5.8,-,0.05,,Overcast,360,2013-03-24 01:55:00
9:15 PM,44.6,42.8,93,29.74,4.0,NE,8.1,-,0.02,,Overcast,50,2013-03-24 02:15:00
9:36 PM,44.6,42.8,93,29.77,5.0,NNW,10.4,-,0.04,,Overcast,340,2013-03-24 02:36:00
10:15 PM,44.6,42.8,93,29.75,6.0,North,10.4,-,0.04,,Overcast,10,2013-03-24 03:15:00
10:35 PM,44.6,42.8,93,29.73,8.0,North,9.2,-,0.04,,Overcast,10,2013-03-24 03:35:00
10:55 PM,44.6,42.8,93,29.73,8.0,NNE,11.5,-,0.04,,Overcast,20,2013-03-24 03:55:00
11:15 PM,44.6,42.8,93,29.73,9.0,NNE,10.4,-,N/A,,Overcast,20,2013-03-24 04:15:00
11:35 PM,46.4,42.8,87,29.72,10.0,NNE,10.4,-,N/A,,Overcast,20,2013-03-24 04:35:00
11:55 PM,44.6,42.8,93,29.71,10.0,NNE,10.4,-,N/A,,Overcast,20,2013-03-24 04:55:00